Weather History for KFEW - December, 2013

Change the Weather History Date:

Wednesday, December 11, 2013

  Actual Average (KCYS) Record (KCYS)
Temperature  
Mean Temperature 22 °F 27 °F  
Max Temperature 35 °F 38 °F 67 °F (1939)
Min Temperature 10 °F 17 °F -20 °F (1932)
Degree Days  
Heating Degree Days 42 38  
Month to date heating degree days 406  
Since 1 July heating degree days 2154  
Cooling Degree Days 0 0  
Month to date cooling degree days 0  
Year to date cooling degree days 348  
Moisture  
Dew Point 11 °F    
Average Humidity 78    
Maximum Humidity 99    
Minimum Humidity 30    
Precipitation  
Precipitation 0.00 in 0.01 in 0.22 in (1949)
Month to date precipitation 0.19  
Year to date precipitation 15.64  
Snow  
Snow 0.00 in 0.30 in 5.20 in (2007)
Month to date snowfall 3.2  
Since 1 July snowfall 17.5  
Snow Depth 5.00 in    
Sea Level Pressure  
Sea Level Pressure 30.35 in    
Wind  
Wind Speed 13 mph (SW)    
Max Wind Speed 33 mph    
Max Gust Speed 40 mph    
Visibility 10 miles    
Events Snow    
T = Trace of Precipitation, MM = Missing Value Source: NWS Daily Summary

Daily Weather History Graph

Daily Weather History Graph

Search for Another Location

Airport or City:

Trip Planner

Search our weather history database for the weather conditions in past years. The results will help you decide how hot, cold, wet, or windy it might be!

Date:

Astronomy

Dec. 11, 2013 Rise Set
Actual Time 7:14 AM MST 4:30 PM MST
Civil Twilight 6:43 AM MST 5:01 PM MST
Nautical Twilight 6:09 AM MST 5:36 PM MST
Astronomical Twilight 5:35 AM MST 6:10 PM MST
Moon 1:08 PM MST (12/11) 1:36 AM MST (12/11)
Length of Visible Light 10h 18m
Length of Day
9h 15m
Waxing Gibbous, 72% of the Moon is Illuminated
Dec 11
Waxing Gibbous
Dec 17
Full
Dec 25
Last Quarter
Jan 1
New
Jan 7
First Quarter

Hourly Weather History & Observations

Time (MST) Temp. Windchill Dew Point Humidity Pressure Visibility Wind Dir Wind Speed Gust Speed Precip Events Conditions
12:56 AM 11.8 °F 0.3 °F 10.0 °F 92% 30.20 in 12.0 mi NW 8.1 mph - N/A   Partly Cloudy
1:16 AM 12.2 °F - 10.4 °F 92% 30.22 in 12.0 mi Variable 1.2 mph - N/A   Mostly Cloudy
1:31 AM 12.2 °F 2.9 °F 10.4 °F 92% 30.21 in 12.0 mi North 5.8 mph - N/A Snow Light Snow Showers
1:56 AM 11.3 °F 3.3 °F 9.0 °F 90% 30.21 in 12.0 mi WNW 4.6 mph - N/A Snow Light Snow Showers
2:01 AM 10.4 °F -0.4 °F 6.8 °F 85% 30.21 in 12.0 mi WNW 6.9 mph - N/A   Scattered Clouds
2:56 AM 12.4 °F -6.9 °F 10.6 °F 92% 30.21 in 12.0 mi WSW 23.0 mph 28.8 mph N/A   Partly Cloudy
3:31 AM 14.0 °F -5.1 °F 12.2 °F 93% 30.21 in 12.0 mi SW 24.2 mph 28.8 mph N/A Snow Light Snow Showers
3:56 AM 13.6 °F -3.9 °F 11.8 °F 93% 30.42 in 1.9 mi SW 19.6 mph 27.6 mph N/A Snow Light Snow Showers
4:01 AM 14.0 °F -3.9 °F 12.2 °F 93% 30.22 in 2.5 mi SW 20.7 mph 27.6 mph N/A Snow Light Snow Showers
4:56 AM 14.0 °F -3.4 °F 12.0 °F 92% 30.42 in 5.0 mi SW 19.6 mph 25.3 mph N/A Snow Mostly Cloudy
5:41 AM 14.0 °F -3.0 °F 12.2 °F 93% 30.22 in 12.0 mi SSW 18.4 mph - N/A Snow Blowing Snow
5:56 AM 13.3 °F -3.4 °F 11.1 °F 91% 30.43 in 12.0 mi SW 17.3 mph - N/A   Partly Cloudy
6:31 AM 12.2 °F -2.5 °F 10.4 °F 92% 30.23 in 12.0 mi SSW 12.7 mph - N/A   Mostly Cloudy
6:56 AM 13.3 °F -2.4 °F 11.5 °F 93% 30.46 in 10.0 mi SSW 15.0 mph - N/A   Mostly Cloudy
7:56 AM 13.3 °F -2.9 °F 11.5 °F 93% 30.47 in 5.0 mi SSW 16.1 mph - N/A   Mostly Cloudy
8:31 AM 12.2 °F -3.1 °F 10.4 °F 92% 30.25 in 6.0 mi South 13.8 mph - N/A Snow Light Snow
8:56 AM 13.3 °F -2.4 °F 11.5 °F 93% 30.47 in 6.0 mi South 15.0 mph - N/A Snow Light Snow
9:46 AM 14.0 °F -2.5 °F 12.2 °F 93% 30.26 in 7.0 mi South 17.3 mph 21.9 mph N/A   Mostly Cloudy
9:56 AM 14.4 °F -2.0 °F 12.7 °F 93% 30.50 in 7.0 mi South 17.3 mph 24.2 mph N/A   Mostly Cloudy
10:06 AM 14.0 °F -2.0 °F 12.2 °F 93% 30.26 in 8.0 mi SSW 16.1 mph 25.3 mph N/A Snow Light Snow Showers
10:21 AM 14.0 °F -2.0 °F 12.2 °F 93% 30.27 in 8.0 mi South 16.1 mph 20.7 mph N/A   Mostly Cloudy
10:41 AM 15.8 °F 2.1 °F 14.0 °F 93% 30.26 in 8.0 mi SSW 12.7 mph 20.7 mph N/A   Scattered Clouds
10:56 AM 16.2 °F 4.7 °F 14.9 °F 95% 30.52 in 10.0 mi South 9.2 mph - N/A   Partly Cloudy
11:51 AM 17.6 °F 6.4 °F 15.8 °F 93% 30.25 in 8.0 mi SSE 9.2 mph - N/A   Mostly Cloudy
11:56 AM 17.1 °F 6.6 °F 15.4 °F 93% 30.49 in 9.0 mi South 8.1 mph - N/A   Unknown
12:01 PM 17.6 °F 7.3 °F 15.8 °F 93% 30.25 in 10.0 mi South 8.1 mph - N/A   Mostly Cloudy
12:16 PM 17.6 °F 7.3 °F 15.8 °F 93% 30.23 in 10.0 mi SSE 8.1 mph - N/A   Scattered Clouds
12:56 PM 21.6 °F 9.3 °F 21.2 °F 99% 30.45 in 12.0 mi SSW 12.7 mph 20.7 mph N/A   Clear
1:56 PM 35.1 °F 21.2 °F 12.2 °F 39% 30.37 in 12.0 mi WNW 33.4 mph 40.3 mph N/A   Clear
2:56 PM 35.6 °F 24.8 °F 11.8 °F 38% 30.36 in 12.0 mi West 19.6 mph 25.3 mph N/A   Clear
3:56 PM 33.6 °F 24.1 °F 10.6 °F 38% 30.39 in 12.0 mi West 13.8 mph - N/A   Clear
4:56 PM 32.5 °F 19.4 °F 9.5 °F 38% 30.40 in 12.0 mi West 25.3 mph 31.1 mph N/A   Clear
5:56 PM 29.3 °F 22.3 °F 9.1 °F 43% 30.46 in 12.0 mi West 6.9 mph - N/A   Clear
6:56 PM 25.3 °F 16.0 °F 7.9 °F 48% 30.48 in 12.0 mi West 9.2 mph - N/A   Clear
7:56 PM 28.0 °F 22.8 °F 7.2 °F 41% 30.48 in 12.0 mi West 4.6 mph - N/A   Clear
8:56 PM 22.5 °F 14.1 °F 6.8 °F 51% 30.51 in 12.0 mi WNW 6.9 mph - N/A   Clear
9:56 PM 32.5 °F 21.2 °F 6.4 °F 33% 30.44 in 12.0 mi West 18.4 mph 25.3 mph N/A   Clear
10:56 PM 32.0 °F 20.1 °F 5.4 °F 33% 30.42 in 12.0 mi WNW 19.6 mph 26.5 mph N/A   Clear
11:56 PM 32.4 °F 21.3 °F 3.7 °F 30% 30.42 in 12.0 mi West 17.3 mph 23.0 mph N/A   Clear